GW0993 Weather Reports


time (UTC)temp
F
wind
direction
speed
knots
gust
knots
rain 1hr
in
rain 24hr
in
rain mn
in
humidity
%
barometer
mb
20260504190028 79 271 1.7 6.1 0.00 0.00 0.00 44 1009.9
20260504185509 78 236 2.6 6.1 0.00 0.00 0.00 45 1009.9
20260504185013 78 249 0.9 3.5 0.00 0.00 0.00 44 1009.9
20260504184540 78 300 0.0 3.5 0.00 0.00 0.00 40 1009.9
20260504184015 79 221 0.9 3.5 0.00 0.00 0.00 43 1009.9
20260504183029 78 262 0.9 2.6 0.00 0.00 0.00 41 1010.0
20260504182517 77 94 0.9 3.5 0.00 0.00 0.00 41 1010.0
20260504182010 77 0 1.7 4.3 0.00 0.00 0.00 42 1009.9
20260504181533 77 0 0.9 4.3 0.00 0.00 0.00 43 1009.9
20260504181010 77 233 0.9 3.5 0.00 0.00 0.00 47 1009.8
20260504180512 76 192 1.7 3.5 0.00 0.00 0.00 48 1009.9
20260504180033 76 279 0.0 2.6 0.00 0.00 0.00 46 1010.0
20260504175510 76 5 0.9 2.6 0.00 0.00 0.00 47 1010.1
20260504175019 75 213 0.9 2.6 0.00 0.00 0.00 52 1010.0
20260504174530 75 5 0.0 3.5 0.00 0.00 0.00 46 1010.0
20260504174010 74 284 0.0 3.5 0.00 0.00 0.00 48 1010.0
20260504173512 74 0 0.0 2.6 0.00 0.00 0.00 48 1010.0
20260504173028 74 127 0.9 3.5 0.00 0.00 0.00 48 1010.0
20260504172512 73 360 0.9 3.5 0.00 0.00 0.00 48 1010.1
20260504172012 73 292 0.0 4.3 0.00 0.00 0.00 51 1010.0
20260504171526 73 344 1.7 4.3 0.00 0.00 0.00 50 1010.1
20260504171011 73 327 1.7 3.5 0.00 0.00 0.00 49 1010.1
20260504170513 73 319 0.9 2.6 0.00 0.00 0.00 52 1010.1
20260504151014 64 59 0.0 2.6 0.00 0.00 0.00 65 1010.4
20260504150516 64 59 0.9 2.6 0.00 0.00 0.00 68 1010.3
20260504141013 53 317 0.0 2.6 0.00 0.00 0.00 88 1009.9
20260504140509 52 317 0.0 2.6 0.00 0.00 0.00 89 1009.9
20260504130510 49 0 0.0 0.0 0.00 0.00 0.00 90 1009.5
20260504110512 51 0 0.0 1.7 0.00 0.00 0.00 88 1009.5
20260504100510 52 348 0.0 1.7 0.00 0.00 0.00 87 1009.4
20260504081528 55 136 0.9 1.7 0.00 0.00 0.00 84 1009.3
20260504081016 55 0 0.0 1.7 0.00 0.00 0.00 84 1009.3
20260504080513 55 0 0.0 1.7 0.00 0.00 0.00 83 1009.3
20260504050510 63 229 1.7 3.5 0.00 0.00 0.00 68 1009.3
20260504045512 64 215 1.7 4.3 0.00 0.00 0.00 67 1009.3
20260504045010 64 196 1.7 4.3 0.00 0.00 0.00 67 1009.3
20260504044534 64 198 1.7 3.5 0.00 0.00 0.00 66 1009.2
20260504044014 65 0 0.9 3.5 0.00 0.00 0.00 65 1009.3
20260504043513 65 222 0.9 3.5 0.00 0.00 0.00 65 1009.2
20260504043036 65 192 0.9 2.6 0.00 0.00 0.00 65 1009.2
20260504042510 66 0 0.0 3.5 0.00 0.00 0.00 64 1009.2
20260504042009 66 190 0.9 4.3 0.00 0.00 0.00 64 1009.3
20260504041530 67 207 1.7 4.3 0.00 0.00 0.00 64 1009.2
20260504041011 67 202 0.9 3.5 0.00 0.00 0.00 64 1009.3
20260504040510 67 209 1.7 3.5 0.00 0.00 0.00 63 1009.1
20260504040030 68 213 1.7 3.5 0.00 0.00 0.00 63 1009.2
20260504035510 68 198 1.7 4.3 0.00 0.00 0.00 62 1009.2
20260504035010 68 219 1.7 4.3 0.00 0.00 0.00 61 1009.2
20260504034532 69 218 1.7 4.3 0.00 0.00 0.00 61 1009.1
20260504034013 69 0 0.9 3.5 0.00 0.00 0.00 61 1009.1
20260504033513 70 174 1.7 3.5 0.00 0.00 0.00 61 1009.1
20260504033033 70 175 0.9 3.5 0.00 0.00 0.00 60 1009.2
20260504032512 71 207 0.9 4.3 0.00 0.00 0.00 59 1009.1
20260504032012 71 186 1.7 4.3 0.00 0.00 0.00 58 1009.1
20260504031528 72 211 0.9 4.3 0.00 0.00 0.00 58 1009.2
20260504031010 72 206 2.6 4.3 0.00 0.00 0.00 57 1009.2
20260504030510 73 191 1.7 5.2 0.00 0.00 0.00 56 1009.2
20260504030032 73 213 2.6 5.2 0.00 0.00 0.00 53 1009.2
20260504025510 74 201 3.5 6.1 0.00 0.00 0.00 51 1009.2
20260504025011 74 173 3.5 6.1 0.00 0.00 0.00 49 1009.2
20260504024538 74 189 2.6 6.1 0.00 0.00 0.00 48 1009.2
20260504024009 75 229 2.6 6.1 0.00 0.00 0.00 47 1009.1
20260504023509 75 229 1.7 6.1 0.00 0.00 0.00 47 1009.2
20260504023031 75 209 3.5 7.0 0.00 0.00 0.00 47 1009.2
20260504022513 75 221 3.5 7.0 0.00 0.00 0.00 47 1009.2
20260504022010 75 198 3.5 7.8 0.00 0.00 0.00 46 1009.2
20260504021530 76 200 4.3 7.8 0.00 0.00 0.00 46 1009.3
20260504021012 76 199 3.5 7.0 0.00 0.00 0.00 45 1009.3
20260504020511 77 205 4.3 7.0 0.00 0.00 0.00 45 1009.3
20260504020033 77 208 2.6 7.0 0.00 0.00 0.00 45 1009.3
20260504015510 78 173 4.3 7.0 0.00 0.00 0.00 46 1009.4
20260504015051 78 188 2.6 7.0 0.00 0.00 0.00 44 1009.4
20260504014530 78 178 3.5 7.0 0.00 0.00 0.00 43 1009.5
20260504014013 79 185 5.2 7.0 0.00 0.00 0.00 43 1009.5
20260504013510 79 216 3.5 6.1 0.00 0.00 0.00 43 1009.5
20260504013037 80 223 1.7 5.2 0.00 0.00 0.00 42 1009.5
20260504012512 80 0 0.9 4.3 0.00 0.00 0.00 41 1009.5
20260504012018 80 248 0.9 3.5 0.00 0.00 0.00 40 1009.6
20260504011529 80 213 0.9 3.5 0.00 0.00 0.00 40 1009.7
20260504011013 80 243 0.9 3.5 0.00 0.00 0.00 40 1009.7
20260504010510 80 0 0.0 2.6 0.00 0.00 0.00 41 1009.7
20260504010030 80 250 0.9 3.5 0.00 0.00 0.00 40 1009.8
20260504005510 80 244 1.7 6.1 0.00 0.00 0.00 39 1009.9
20260504005011 80 227 2.6 6.1 0.00 0.00 0.00 38 1009.9
20260504004530 80 245 0.9 4.3 0.00 0.00 0.00 38 1010.0
20260504004011 80 223 0.0 4.3 0.00 0.00 0.00 38 1010.0
20260504003512 80 0 0.9 4.3 0.00 0.00 0.00 37 1010.1
20260504003039 81 245 0.9 4.3 0.00 0.00 0.00 37 1010.0
20260504002512 81 0 0.0 4.3 0.00 0.00 0.00 37 1010.2
20260504002011 81 223 1.7 4.3 0.00 0.00 0.00 40 1010.2
20260504001532 81 248 0.9 3.5 0.00 0.00 0.00 40 1010.4
20260504001013 81 247 0.9 6.1 0.00 0.00 0.00 41 1010.4
20260504000511 81 255 0.0 6.1 0.00 0.00 0.00 42 1010.5
20260504000032 81 205 1.7 5.2 0.00 0.00 0.00 42 1010.5
20260503235512 81 248 0.9 4.3 0.00 0.00 0.00 41 1010.6
20260503235012 80 0 1.7 4.3 0.00 0.00 0.00 40 1010.6
20260503234529 80 239 1.7 4.3 0.00 0.00 0.00 44 1010.6
20260503234010 80 237 1.7 4.3 0.00 0.00 0.00 43 1010.7
20260503233512 80 244 0.9 3.5 0.00 0.00 0.00 44 1010.7
20260503233038 80 252 1.7 3.5 0.00 0.00 0.00 45 1010.7
20260503232514 80 246 0.9 5.2 0.00 0.00 0.00 47 1010.8
20260503232015 80 245 2.6 5.2 0.00 0.00 0.00 46 1010.8
20260503231532 80 260 0.9 4.3 0.00 0.00 0.00 46 1010.8
20260503231011 80 251 1.7 4.3 0.00 0.00 0.00 46 1011.0
20260503230510 81 248 0.9 5.2 0.00 0.00 0.00 47 1011.0
20260503230029 80 230 2.6 5.2 0.00 0.00 0.00 46 1011.0
20260503225510 81 271 0.9 5.2 0.00 0.00 0.00 47 1011.0
20260503225016 81 250 1.7 5.2 0.00 0.00 0.00 46 1011.2
20260503224531 80 254 1.7 6.1 0.00 0.00 0.00 43 1011.3
20260503224012 80 288 1.7 6.1 0.00 0.00 0.00 42 1011.4
20260503223507 80 246 1.7 6.1 0.00 0.00 0.00 42 1011.4
20260503223027 80 257 1.7 6.1 0.00 0.00 0.00 41 1011.5
20260503222510 80 261 0.0 6.1 0.00 0.00 0.00 40 1011.5
20260503222010 81 244 1.7 6.1 0.00 0.00 0.00 38 1011.5
20260503221527 81 242 0.9 3.5 0.00 0.00 0.00 39 1011.6
20260503221012 80 0 0.9 3.5 0.00 0.00 0.00 42 1011.6
20260503220510 80 254 0.9 5.2 0.00 0.00 0.00 38 1011.7
20260503220032 80 225 0.0 5.2 0.00 0.00 0.00 39 1011.7
20260503215510 80 232 0.9 4.3 0.00 0.00 0.00 40 1011.7
20260503215013 80 250 1.7 4.3 0.00 0.00 0.00 41 1011.9
20260503214528 80 256 0.0 6.1 0.00 0.00 0.00 48 1011.9
20260503214008 80 212 2.6 6.1 0.00 0.00 0.00 46 1011.9
20260503213508 79 244 0.9 4.3 0.00 0.00 0.00 45 1012.0
20260503213032 79 0 0.0 1.7 0.00 0.00 0.00 46 1012.0
20260503212515 79 257 0.9 4.3 0.00 0.00 0.00 47 1012.0
20260503212011 79 0 0.9 4.3 0.00 0.00 0.00 49 1012.0
20260503211530 79 242 0.9 4.3 0.00 0.00 0.00 47 1012.1
20260503211007 79 308 0.9 3.5 0.00 0.00 0.00 46 1012.2
20260503210510 79 315 0.9 4.3 0.00 0.00 0.00 49 1012.3
20260503210027 79 245 1.7 4.3 0.00 0.00 0.00 48 1012.3
20260503205510 78 213 0.0 3.5 0.00 0.00 0.00 50 1012.3
20260503205011 79 256 0.9 6.1 0.00 0.00 0.00 48 1012.4
20260503204528 78 261 0.9 6.1 0.00 0.00 0.00 51 1012.4
20260503204012 78 261 1.7 7.0 0.00 0.00 0.00 51 1012.5
20260503203510 78 262 0.0 7.0 0.00 0.00 0.00 53 1012.6
20260503203036 78 244 1.7 4.3 0.00 0.00 0.00 52 1012.5
20260503202509 78 206 1.7 4.3 0.00 0.00 0.00 50 1012.7
20260503202010 78 0 1.7 7.0 0.00 0.00 0.00 53 1012.6
20260503201528 78 229 1.7 7.0 0.00 0.00 0.00 52 1012.6
20260503201014 78 231 2.6 6.1 0.00 0.00 0.00 53 1012.7
20260503200511 79 250 1.7 4.3 0.00 0.00 0.00 50 1012.8
20260503200027 79 327 1.7 4.3 0.00 0.00 0.00 45 1012.8
20260503195510 79 229 0.9 3.5 0.00 0.00 0.00 47 1013.1
20260503195010 79 254 0.9 4.3 0.00 0.00 0.00 46 1013.1
20260503194531 79 242 0.0 4.3 0.00 0.00 0.00 48 1013.2
20260503194010 78 5 2.6 4.3 0.00 0.00 0.00 45 1013.2
20260503193514 78 333 0.9 4.3 0.00 0.00 0.00 42 1013.3
20260503193030 78 266 0.9 4.3 0.00 0.00 0.00 40 1013.3
20260503192510 78 242 0.9 3.5 0.00 0.00 0.00 42 1013.3
20260503192008 77 292 0.9 1.7 0.00 0.00 0.00 45 1013.4
20260503191528 78 0 0.0 4.3 0.00 0.00 0.00 43 1013.4
20260503191010 78 350 1.7 7.8 0.00 0.00 0.00 37 1013.4
20260503190509 78 310 2.6 7.8 0.00 0.00 0.00 42 1013.5